Retour au catalogue

CZ-6A DEB

ActifSSO
NORAD 55540·DEBRIS·🇨🇳 China

Lancé Nov 11, 2022 depuis Taiyuan Satellite Launch Center

Loading…

Prochains Passages (prochaines 24 heures)

TLE

FraisSource: Space-Track

Époque: Sep 14, 2026, 00:24 UTC

1 55540U 22151YN  26257.01720542  .00000854  00000-0  29104-3 0  9999
2 55540  98.6436 287.8250 0101969 147.8234 212.9229 14.36121423195238

Suivez CZ-6A DEB en temps réel avec AllMySat

Download on the App Store